Iowa City, IA

6:48 PM CDT on July 20, 2017 (GMT -0500)
Iowa City Municipal

Weather History for KIOW - March, 2013

Change the Weather History Date:

Wednesday, March 27, 2013

  Actual Average Record
Temperature  
Mean Temperature 36 °F 44 °F  
Max Temperature 45 °F 54 °F 81 °F (1991)
Min Temperature 27 °F 34 °F 7 °F (1964)
Degree Days  
Heating Degree Days 29 21  
Month to date heating degree days 964 737  
Since 1 July heating degree days 5650 5687  
Cooling Degree Days 0 0  
Month to date cooling degree days 0 0  
Year to date cooling degree days 0 0  
Moisture  
Dew Point 24 °F    
Average Humidity 64    
Maximum Humidity 85    
Minimum Humidity 43    
Precipitation  
Precipitation 0.00 in 0.07 in 0.79 in (1991)
Month to date precipitation 2.43 1.92  
Year to date precipitation 4.88 4.08  
Sea Level Pressure  
Sea Level Pressure 30.36 in    
Wind  
Wind Speed 1 mph (West)    
Max Wind Speed 9 mph    
Max Gust Speed 12 mph    
Visibility 10 miles    
Events      
T = Trace of Precipitation, MM = Missing Value Source: NWS Daily Summary

Daily Weather History Graph

Daily Weather History Graph

Search for Another Location

Airport or City:

Trip Planner

Search our weather history database for the weather conditions in past years. The results will help you decide how hot, cold, wet, or windy it might be!

Date:

Astronomy

Mar. 27, 2013 Rise Set
Actual Time 6:57 AM CDT 7:26 PM CDT
Civil Twilight 6:29 AM CDT 7:54 PM CDT
Nautical Twilight 5:56 AM CDT 8:27 PM CDT
Astronomical Twilight 5:22 AM CDT 9:01 PM CDT
Moon 8:11 PM CDT (3/27) 6:47 AM CDT (3/27)
Length of Visible Light 13h 24m
Length of Day
12h 29m
Full, 100% of the Moon is Illuminated
Mar 27
Full
Apr 2
Last Quarter
Apr 10
New
Apr 18
First Quarter
Apr 25
Full

Hourly Weather History & Observations

Time (CDT) Temp. Windchill Dew Point Humidity Pressure Visibility Wind Dir Wind Speed Gust Speed Precip Events Conditions
12:52 AM 32.0 °F 25.6 °F 25.0 °F 75% 30.36 in 10.0 mi West 6.9 mph - N/A   Overcast
1:52 AM 32.0 °F 25.6 °F 24.1 °F 73% 30.36 in 10.0 mi WNW 6.9 mph - N/A   Overcast
2:52 AM 30.9 °F 25.2 °F 23.0 °F 72% 30.35 in 10.0 mi WNW 5.8 mph - N/A   Overcast
3:52 AM 28.0 °F 22.8 °F 23.0 °F 81% 30.36 in 10.0 mi West 4.6 mph - N/A   Scattered Clouds
4:52 AM 28.9 °F - 23.0 °F 78% 30.35 in 10.0 mi Calm Calm - N/A   Clear
5:52 AM 28.9 °F - 23.0 °F 78% 30.36 in 10.0 mi Calm Calm - N/A   Clear
6:52 AM 27.0 °F - 23.0 °F 85% 30.37 in 10.0 mi Calm Calm - N/A   Clear
7:52 AM 28.0 °F - 23.0 °F 81% 30.38 in 10.0 mi Calm Calm - N/A   Clear
8:52 AM 35.1 °F - 26.1 °F 70% 30.39 in 10.0 mi Calm Calm - N/A   Clear
9:52 AM 37.9 °F - 23.0 °F 55% 30.39 in 10.0 mi Calm Calm - N/A   Clear
10:52 AM 39.0 °F - 19.9 °F 46% 30.39 in 10.0 mi Calm Calm - N/A   Clear
11:52 AM 39.0 °F - 19.9 °F 46% 30.39 in 10.0 mi Calm Calm - N/A   Clear
12:52 PM 39.9 °F - 21.9 °F 49% 30.38 in 10.0 mi Calm Calm - N/A   Partly Cloudy
1:52 PM 41.0 °F 39.0 °F 21.9 °F 47% 30.37 in 10.0 mi WNW 3.5 mph - N/A   Clear
2:52 PM 42.1 °F 40.2 °F 23.0 °F 47% 30.35 in 10.0 mi Variable 3.5 mph - N/A   Clear
3:52 PM 42.1 °F 39.2 °F 21.9 °F 45% 30.34 in 10.0 mi SSW 4.6 mph - N/A   Partly Cloudy
4:52 PM 44.1 °F - 24.1 °F 45% 30.32 in 10.0 mi Calm Calm - N/A   Clear
5:52 PM 44.1 °F 41.5 °F 24.1 °F 45% 30.32 in 10.0 mi SSE 4.6 mph - N/A   Clear
6:52 PM 43.0 °F - 23.0 °F 45% 30.32 in 10.0 mi Calm Calm - N/A   Clear
7:52 PM 39.9 °F - 25.0 °F 55% 30.33 in 10.0 mi Calm Calm - N/A   Clear
8:52 PM 34.0 °F - 26.1 °F 73% 30.34 in 10.0 mi Calm Calm - N/A   Clear
9:52 PM 32.0 °F - 26.1 °F 79% 30.36 in 10.0 mi Calm Calm - N/A   Clear
10:52 PM 30.0 °F - 26.1 °F 85% 30.36 in 10.0 mi Calm Calm - N/A   Clear
11:52 PM 32.0 °F - 26.1 °F 79% 30.36 in 10.0 mi Calm Calm - N/A   Clear